Date,TemperatureHighF,TemperatureAvgF,TemperatureLowF,DewpointHighF,DewpointAvgF,DewpointLowF,HumidityHigh,HumidityAvg,HumidityLow,PressureMaxIn,PressureMinIn,WindSpeedMaxMPH,WindSpeedAvgMPH,GustSpeedMaxMPH,PrecipitationSumIn
2013-2-1,59,53,48,35,24,14,53,33,19,30.24,30.18,13,9,17,0.00
2013-2-2,56,53,50,32,27,13,49,37,20,30.30,30.22,15,9,18,0.00
2013-2-3,52,48,46,38,25,10,67,42,20,30.22,30.14,19,10,24,0.00
2013-2-4,65,54,50,41,20,9,56,28,18,30.17,30.09,22,10,24,0.00
2013-2-5,52,43,34,39,24,4,99,56,17,30.09,30.01,28,18,42,0.01
2013-2-6,47,39,33,36,31,22,98,74,49,30.13,30.06,28,14,37,0.01
2013-2-7,35,33,30,35,32,30,99,98,89,30.08,29.70,27,16,39,0.05
2013-2-8,36,31,29,33,29,19,99,92,56,29.89,29.70,30,12,35,0.06
2013-2-9,39,34,32,22,18,8,60,51,27,30.03,29.87,35,20,51,0.07
2013-2-10,41,38,32,30,23,8,71,56,27,30.03,29.97,29,22,39,0.02
2013-2-11,46,39,32,22,17,14,52,42,29,30.19,29.92,31,20,39,0.00
2013-2-12,48,43,39,26,21,14,52,42,28,30.31,30.12,22,12,29,0.00
2013-2-13,51,44,40,34,27,22,74,52,40,30.29,30.21,25,20,34,0.00
2013-2-14,51,46,40,34,30,26,69,55,40,30.26,30.15,48,31,60,0.00
2013-2-15,64,56,48,37,23,7,60,30,13,30.32,30.25,25,8,41,0.00
2013-2-16,60,56,50,36,20,9,50,27,14,30.31,30.08,20,9,26,0.00
2013-2-17,53,47,40,37,24,-7,87,45,10,30.08,29.98,24,13,30,0.00
2013-2-18,47,37,30,34,24,-7,99,71,11,29.99,29.81,40,18,109,0.01
2013-2-19,32,30,27,32,30,27,99,99,98,29.82,29.61,17,5,112,0.01
2013-2-20,40,33,27,32,28,26,98,83,64,29.98,29.56,24,11,33,0.10
2013-2-21,41,36,30,29,25,20,90,67,43,30.11,29.94,35,21,51,0.01
2013-2-22,48,42,37,35,25,16,89,51,37,30.22,29.93,27,18,45,0.01
2013-2-23,41,36,32,39,28,15,99,75,44,30.16,30.07,28,20,46,0.02
2013-2-24,48,37,32,16,12,7,51,37,26,30.19,30.03,39,27,53,0.01
2013-2-25,49,45,41,35,23,9,66,44,25,30.22,30.03,22,11,34,0.00
2013-2-26,50,43,35,31,13,3,64,31,16,30.21,29.96,44,27,58,0.00
2013-2-27,57,51,45,36,18,-1,66,32,12,30.35,30.21,23,12,32,0.00
2013-2-28,56,50,43,46,40,30,89,69,50,30.45,30.34,23,13,33,0.00